Location: Croydon
(51.3762°N, 0.0982°W)
Time: 12:32:07
(UTC+01:00)

VELOX 1 - Pass Details

Date: 23 April 2019
Orbit: 629 x 644 km, 98.2° (Epoch: 21 May)

Event Time Altitude Azimuth Distance (km) Brightness Sun altitude
Exits shadow 23:57:19 - 77° (ENE) 2,202 ? -24.6°
Reaches altitude 10° 23:58:56 10° 57° (ENE) 2,019 ? -24.6°
Maximum altitude 23:59:24 10° 51° (NE) 2,009 ? -24.7°
Drops below altitude 10° 23:59:52 10° 45° (NE) 2,020 ? -24.7°
Sets 00:04:20 0° 2° (N) 2,936 ? -24.9°
